Flag for France Weather past 2 weeks in Paris, France

Now
66 °F

Partly sunny.


Feels Like: 66 °F
Forecast: 51 / 65 °F
Wind: 8 mph from North

Location: Villacoublay

Current Time: Sep 21, 2014 at 4:11:05 PM

Latest Report: Sep 21, 2014 at 3:30 PM


Visibility: N/A

Pressure: 30.12 "Hg

Humidity: 73%

Dew point: 57 °F

Location of ParisLocation

Historic Weather in Paris — Graph

°F

Paris temperature yesterday

Maximum temperature yesterday: 79 °F (at 2:00 PM)
Minimum temperature yesterday: 59 °F (at 5:00 AM)
Average temperature yesterday: 65 °F

Past Weeks' High & Low Weather Summary

 TemperatureHumidityPressure
High79 °F (Sep 17, 5:00 PM)100% (Sep 21, 8:00 AM)30.18 "Hg (Sep 21, 8:00 AM)
Low54 °F (Sep 10, 5:00 AM)36% (Sep 9, 5:00 PM)29.74 "Hg (Sep 18, 7:30 AM)
Average66 °F69%29.99 "Hg
* Reported Sep 6 3:00 PM — Sep 21 3:00 PM, Paris, Weather by CustomWeather, © 2014

Note: Actual official high and low records may vary slightly from our data, if they occured in-between our weather recording intervals... More about our weather records

Advertising

Paris weather history for previous 24 hours

 ConditionsComfort  
Time TempWeatherWind HumidityBarometerVisibility
3:00 PM
Sep 21
64 °FPartly sunny.12 mph78%30.12 "HgN/A
2:30 PM63 °FBroken clouds.7 mph94%30.12 "HgN/A
2:00 PM63 °FBroken clouds.8 mph94%30.12 "HgN/A
1:30 PM64 °FBroken clouds.9 mph83%30.12 "HgN/A
1:00 PM64 °FPartly sunny.6 mph88%30.12 "HgN/A
12:30 PM63 °FPartly sunny.5 mph88%30.12 "HgN/A
12:00 PM63 °FBroken clouds.8 mph88%30.12 "HgN/A
11:30 AM63 °FBroken clouds.7 mph88%30.09 "Hg4 mi
11:00 AM61 °FLight rain. Fog.7 mph94%30.09 "Hg2 mi
10:30 AM63 °FLight rain. Fog.6 mph94%30.09 "Hg2 mi
10:00 AM63 °FLight rain. Fog.7 mph94%30.09 "Hg2 mi
9:30 AM63 °FFog.5 mph94%30.07 "Hg2 mi
9:00 AM61 °FFog.3 mph94%30.07 "Hg3 mi
8:30 AM61 °FFog.6 mph94%30.07 "Hg2 mi
8:00 AM61 °FFog.5 mph100%30.07 "Hg2 mi
7:00 AM61 °FFog.3 mph94%30.04 "Hg2 mi
6:30 AM63 °FLight rain. Fog.5 mph94%30.04 "Hg2 mi
6:00 AM63 °FDrizzle. Fog.3 mph94%30.04 "Hg3 mi
5:30 AM63 °FLow clouds.3 mph94%30.04 "Hg4 mi
5:00 AM63 °FFog.5 mph94%30.04 "Hg3 mi
4:30 AM63 °FDrizzle. Fog.5 mph94%30.04 "Hg3 mi
4:00 AM63 °FDrizzle. Fog.5 mph94%30.04 "Hg3 mi
3:30 AM63 °FMostly cloudy.8 mph94%30.04 "HgN/A
3:00 AM63 °FLow clouds.7 mph94%30.04 "HgN/A
2:30 AM63 °FPartly cloudy.2 mph94%30.04 "HgN/A
2:00 AM63 °FPartly cloudy.5 mph94%30.04 "HgN/A
1:30 AM63 °FClear.5 mph94%30.04 "HgN/A
1:00 AM63 °FClear.6 mph88%30.04 "HgN/A
12:30 AM63 °FMild.7 mph88%30.04 "HgN/A
12:00 AM63 °FMostly cloudy.6 mph88%30.04 "HgN/A
11:30 PM
Sep 20
63 °FOvercast.5 mph88%30.04 "HgN/A
11:00 PM64 °FClear.1 mph88%30.04 "HgN/A
10:30 PM63 °FClear.No wind88%30.01 "HgN/A
10:00 PM63 °FClear.2 mph88%30.04 "HgN/A
9:30 PM63 °FClear.1 mph88%30.01 "HgN/A
9:00 PM63 °FClear.No wind88%30.01 "HgN/A
8:30 PM63 °FClear.3 mph88%30.01 "HgN/A
8:00 PM64 °FMild.3 mph83%30.01 "HgN/A
Weather by CustomWeather, © 2014

See weather overviewHow to use our weather pages